Regional Weather Roundup
Issued by NWS

Home | Current Version | Previous Version | Text Only | Print | Product List | Glossary Off
Versions: 1 2 3 4 5 6 7 8 9 10 11 12 13 14 15 16 17 18 19 20 21 22 23 24 25 26 27

000
ASUS45 KCYS 291110
RWRWY

WYOMING REGIONAL WEATHER ROUNDUP
NATIONAL WEATHER SERVICE CHEYENNE WY
500 AM MDT THU SEP 29 2016

NOTE:  "FAIR" INDICATES FEW OR NO CLOUDS BELOW 12,000 FEET
WITH NO SIGNIFICANT WEATHER AND/OR OBSTRUCTIONS TO VISIBILITY.

WYZ001-291200-
YELLOWSTONE NATIONAL PARK

CITY           SKY/WX    TMP DP  RH WIND       PRES   REMARKS
LK YELLOWSTONE   N/A     33  33 100 CALM      30.42R
W YELLOWSTONE  NOT AVBL

$$
WYZ002>013-054>058-071-098>099-291200-
NORTHERN WYOMING

CITY           SKY/WX    TMP DP  RH WIND       PRES   REMARKS
JACKSON        FAIR      41  37  87 NE3       30.33S
CODY           FAIR      57  39  51 SW6       30.22S
GREYBULL       FAIR      50  43  77 SE3       30.18R
WORLAND        FAIR      46  42  86 SE6       30.19S
SHERIDAN       FAIR      48  38  68 CALM      30.18S
BUFFALO        FAIR      55  38  52 SE12      30.24S
GILLETTE       FAIR      53  43  68 S13       30.25S
HULETT         FAIR      61  41  48 S3        30.29S
NEWCASTLE      FAIR      57  36  44 SE12G17   30.33S

$$
WYZ014>020-022>026-101>103-291200-
CENTRAL WYOMING

CITY           SKY/WX    TMP DP  RH WIND       PRES   REMARKS
BIG PINEY      MOCLDY    45  37  73 MISG      30.39R
PINEDALE       CLOUDY    45  37  76 CALM      30.39S
DUBOIS         FAIR      43  34  70 NW8       30.39R
LANDER         FAIR      54  39  57 CALM      30.30R
RIVERTON       FAIR      51  41  68 NW10      30.30R
CASPER         FAIR      42  39  89 N6        30.29S
DOUGLAS        FAIR      52  39  61 SE13      30.30S

$$
WYZ021-027>030-104>119-291200-
SOUTHERN WYOMING

CITY           SKY/WX    TMP DP  RH WIND       PRES   REMARKS
EVANSTON       MOCLDY    56  38  50 S8        30.36S
FORT BRIDGER   PTSUNNY   57  40  52 S10       30.38S
ROCK SPRINGS   FAIR      53  40  61 CALM      30.37S
DIXON          FAIR      45  36  71 E5        30.42R
RAWLINS        FAIR      43  32  65 NE5       30.39R
SARATOGA       FAIR      50  32  50 S7        30.41R
LARAMIE        FAIR      45  36  70 S10       30.40S
CHEYENNE       FAIR      47  38  71 S8        30.39S
TORRINGTON     FAIR      46  38  73 E7        30.33S
PINE BLUFFS    FAIR      39  34  81 W10       30.37S WCI  32

$$




USA.gov is the U.S. government's official web portal to all federal, state and local government web resources and services.